This demonstration page uses our WeatherBlox Daily Observations layout. Learn more.

Left ArrowRight Arrow

Hourly Observations for May 20, 2018

Temp ( °F °C ) Dew Point ( °F °C ) Humidity (%) Winds ( mph kmh ) Pressure ( in mb ) Visibility ( mi km ) Precip ( " mm )
12:10 am 00:10 Cloudy with Light Rain 50 10 48 9 94 94 NW 7 11 30.12 1020 10 16 0.00 0.00
12:56 am 00:56 Cloudy with Light Rain 50 10 49 9.4 96 96 N 9 15 30.11 1020 6 10 0.02 0.51
1:24 am 01:24 Cloudy 52 11 50 10 94 94 NNW 6 9 30.12 1020 10 16 0.01 0.25
1:56 am 01:56 Cloudy 51 10.6 50 10 96 96 N 9 15 30.09 1019 10 16 0.01 0.25
2:49 am 02:49 Cloudy 52 11 50 10 94 94 N 10 17 30.09 1019 10 16 0.00 0.00
2:56 am 02:56 Cloudy 51 10.6 50 10 96 96 N 9 15 30.09 1019 10 16 0.00 0.00
3:49 am 03:49 Cloudy 52 11 50 10 94 94 N 9 15 30.09 1019 10 16 0.00 0.00
3:56 am 03:56 Cloudy 51 10.6 50 10 96 96 N 10 17 30.09 1019 10 16 0.00 0.00
4:56 am 04:56 Cloudy with Mist and Fog 52 11.1 51 10.6 97 97 N 9 15 30.11 1020 5 8 0.00 0.03
5:34 am 05:34 Cloudy with Light Rain 52 11 52 11 100 100 N 10 17 30.12 1020 3 4 0.00 0.03
5:49 am 05:49 Cloudy with Light Rain 52 11 52 11 100 100 N 9 15 30.12 1020 3 5 0.00 0.00
5:56 am 05:56 Cloudy with Light Rain 52 11.1 51 10.6 97 97 N 13 20 30.11 1020 3 4 0.00 0.03
6:29 am 06:29 Cloudy with Mist and Fog 52 11 52 11 100 100 N 10 17 30.12 1020 3 5 0.01 0.25
6:56 am 06:56 Cloudy with Mist and Fog 52 11.1 51 10.6 97 97 N 13 20 30.13 1020 3 5 0.01 0.25
7:56 am 07:56 Cloudy 51 10.6 51 10.6 100 100 N 13 20 30.14 1021 8 13 0.00 0.00
8:35 am 08:35 Cloudy 52 11 52 11 100 100 NNE 13 20 30.15 1021 10 16 0.00 0.00
8:56 am 08:56 Cloudy 52 11.1 51 10.6 97 97 NNE 13 20 30.16 1021 10 16 0.00 0.00
9:56 am 09:56 Cloudy with Mist and Fog 53 11.7 52 11.1 96 96 NNE 10 17 30.16 1022 2 3 0.00 0.00
10:05 am 10:05 Cloudy with Mist and Fog 54 12 52 11 94 94 NNE 13 20 30.18 1022 3 5 0.00 0.00
10:35 am 10:35 Cloudy with Mist and Fog 54 12 52 11 94 94 NNE 13 20 30.18 1022 4 6 0.00 0.00
10:56 am 10:56 Cloudy with Mist and Fog 54 12.2 52 11.1 93 93 NNE 13 20 30.17 1022 4 6 0.00 0.00
11:56 am 11:56 Cloudy with Mist and Fog 54 12.2 53 11.7 97 97 N 15 24 30.17 1022 5 8 0.00 0.00
12:56 pm 12:56 Cloudy 55 12.8 52 11.1 90 90 N 12 19 30.16 1021 10 16 0.00 0.00
1:23 pm 13:23 Cloudy 55 13 52 11 88 88 NE 12 19 30.15 1021 10 16 0.00 0.00
1:56 pm 13:56 Cloudy 55 12.8 52 11.1 90 90 N 12 19 30.15 1021 10 16 0.00 0.00
2:56 pm 14:56 Cloudy 56 13.3 52 11.1 87 87 N 14 22 30.14 1021 10 16 0.00 0.00
3:56 pm 15:56 Cloudy 55 12.8 51 10.6 87 87 N 13 20 30.13 1020 10 16 0.00 0.00
4:56 pm 16:56 Cloudy 56 13.3 52 11.1 87 87 N 10 17 30.12 1020 10 16 0.00 0.00
5:22 pm 17:22 Cloudy 55 13 52 11 88 88 NNE 8 13 30.09 1019 10 16 0.00 0.00
5:56 pm 17:56 Cloudy 56 13.3 51 10.6 84 84 NE 9 15 30.11 1020 10 16 0.00 0.00
6:30 pm 18:30 Cloudy 55 13 52 11 88 88 NE 5 7 30.09 1019 10 16 0.00 0.00
6:54 pm 18:54 Cloudy 55 13 52 11 88 88 NE 7 11 30.09 1019 10 16 0.00 0.00
6:56 pm 18:56 Cloudy 56 13.3 51 10.6 84 84 NE 7 11 30.11 1020 10 16 0.00 0.00
7:04 pm 19:04 Cloudy 55 13 52 11 88 88 NE 5 7 30.09 1019 10 16 0.00 0.00
7:56 pm 19:56 Cloudy 55 12.8 51 10.6 87 87 ENE 5 7 30.11 1020 10 16 0.00 0.00
8:56 pm 20:56 Cloudy 55 12.8 51 10.6 87 87 ENE 5 7 30.11 1020 10 16 0.00 0.00
9:03 pm 21:03 Cloudy 54 12 52 11 94 94 E 5 7 30.12 1020 10 16 0.00 0.00
9:56 pm 21:56 Cloudy 54 12.2 52 11.1 93 93 S 3 6 30.13 1020 10 16 0.00 0.00
10:56 pm 22:56 Cloudy 54 12.2 52 11.1 93 93 Calm 30.13 1020 10 16 0.00 0.00
11:38 pm 23:38 Cloudy 54 12 52 11 94 94 Calm 30.12 1020 10 16 0.00 0.00
11:56 pm 23:56 Cloudy 54 12.2 51 10.6 90 90 Calm 30.12 1020 10 16 0.00 0.00

Powered by AerisWeather